Torna al catalogo

NOAA 16 DEB

AttivoPO
NORAD 41512·DEBRIS·🇺🇸 United States

Lanciato Sep 21, 2000 da Vandenberg Space Force Base

Loading…

Prossimi Passaggi (prossime 24 ore)

TLE

AggiornatoSource: Space-Track

Epoca: Sep 14, 2026, 13:15 UTC

1 41512U 00055ML  26257.55239132  .00004617  00000-0  10350-2 0  9994
2 41512  98.9512 115.2382 0028581 132.5825 227.7790 14.56893609547350

Traccia NOAA 16 DEB in tempo reale con AllMySat

Download on the App Store